GFSCGP_925_rhum_000.txt.gz
RH
23 18 24 22 23 22 24 23 19 15 17 23 18 17 14 12 12 14 17 17 17 18 19 22 26 26 26 26 24 24 26 29 28 28 27 26 27 30 34 31 34 38 34 34
22 26 23 23 22 23 22 23 20 18 18 23 21 19 13 12 14 17 18 17 18 19 20 23 25 28 30 26 25 23 23 27 26 24 24 25 26 26 26 31 38 38 38 36
25 25 22 23 22 24 22 25 23 25 22 18 21 13 13 13 16 18 18 20 20 21 21 22 24 28 30 30 28 26 24 24 25 25 25 26 28 29 28 28 29 35 42 42
23 24 25 23 24 25 26 24 25 27 28 22 24 19 15 15 15 15 18 18 18 19 20 22 23 26 30 31 31 29 24 23 24 28 24 27 23 21 21 27 28 33 40 44
27 26 25 24 27 26 26 26 27 30 30 29 26 27 17 18 16 16 16 18 19 20 22 22 22 25 27 30 33 33 27 26 24 29 32 30 30 26 28 32 37 37 39 43
24 24 25 24 24 26 25 27 27 31 32 41 28 27 19 18 19 18 16 19 21 20 21 22 24 26 26 30 35 36 31 27 28 32 35 35 32 31 31 32 34 32 33 33
22 25 25 27 27 27 28 31 44 43 41 35 29 32 23 19 18 20 21 22 22 22 23 23 22 24 26 27 32 33 32 29 29 35 37 40 41 40 37 36 32 36 32 34
36 31 24 29 31 36 31 33 47 78 46 39 27 36 19 18 18 19 22 22 23 23 23 23 23 24 25 27 29 30 28 30 29 36 41 44 42 35 34 37 34 34 35 36
44 36 31 30 33 33 37 41 34 46 58 56 34 26 22 18 20 22 21 22 24 25 25 24 23 26 28 28 29 32 31 29 32 39 44 42 42 39 34 38 39 35 37 34
42 54 38 33 33 32 36 31 50 48 84 71 32 31 27 23 23 22 24 24 27 28 28 27 26 26 28 30 29 32 38 32 36 41 42 40 40 38 36 39 39 40 41 39
39 51 45 39 36 43 43 46 38 40 48 67 66 40 23 26 25 26 25 26 28 29 30 29 28 28 30 33 35 39 37 33 37 40 44 42 37 36 40 41 41 40 42 43
44 54 66 49 36 36 40 45 42 59 56 56 72 61 27 26 25 28 28 27 27 28 28 28 31 32 32 33 33 36 36 34 37 39 44 42 39 42 43 41 43 44 46 48
48 64 72 46 39 40 42 40 42 48 72 80 92 57 24 24 25 26 28 27 28 30 29 30 33 32 29 32 34 34 36 35 38 40 40 41 44 43 43 44 44 45 49 50
50 58 68 63 46 41 54 47 44 54 92 76 65 52 38 33 31 27 28 29 31 32 32 37 39 31 29 32 32 32 34 38 40 38 37 40 44 47 48 47 47 49 51 48
55 76 56 54 50 52 55 55 52 58 59 83 63 49 39 35 32 31 30 32 35 35 42 43 39 31 28 31 31 32 33 41 42 39 38 37 48 51 48 46 49 49 45 41
53 80 77 83 59 58 67 57 55 53 52 50 51 52 37 33 29 30 33 35 37 44 47 44 38 30 27 29 30 38 41 48 44 41 38 44 50 47 45 46 47 41 37 37
72 87 99 95 60 78 98 78 56 46 43 49 61 47 34 33 33 37 39 40 53 49 54 66 38 28 26 30 42 46 50 47 44 39 42 46 47 47 45 45 39 35 37 39
94 99 95 98 98 95 37 29 31 39 40 38 37 39 35 33 37 51 49 52 58 56 76 65 39 30 34 46 46 55 45 40 42 41 46 45 46 46 45 40 35 36 39 42
64 95 99 100 86 57 43 34 42 48 49 34 36 36 39 48 62 68 46 54 53 72 68 50 51 50 56 64 74 55 40 36 40 43 44 45 48 47 41 36 37 40 45 51
65 83 99 100 98 82 47 34 34 36 58 38 40 52 67 70 94 70 49 69 85 79 67 66 82 95 96 86 59 40 36 34 40 44 47 49 48 43 38 37 40 44 48 58
100 100 99 97 98 76 41 39 40 77 65 54 52 54 58 66 64 62 78 84 72 67 69 81 89 80 68 56 42 41 34 39 47 51 51 49 46 41 40 41 43 47 61 75
81 99 100 100 100 91 38 41 66 51 55 48 51 56 61 63 76 75 86 79 70 76 90 99 83 62 57 59 48 38 34 44 52 52 50 48 45 44 41 43 49 60 68 74
94 81 76 63 64 41 40 48 47 48 54 55 58 54 61 86 75 91 88 80 74 94 94 75 65 62 57 47 41 36 47 52 54 52 51 50 47 41 42 48 60 65 63 72
67 59 82 82 61 50 50 48 48 49 55 51 59 73 90 91 94 89 83 67 96 98 89 63 58 46 40 43 48 46 55 59 53 55 56 54 45 48 50 57 60 64 70 80
74 82 92 91 76 56 53 48 48 52 52 55 61 76 86 95 87 84 68 89 97 96 73 59 50 43 38 46 49 54 58 61 57 62 62 51 48 56 62 63 68 72 75 87
90 87 93 88 55 61 62 48 44 49 56 61 76 78 88 76 77 66 79 97 98 87 66 56 45 40 42 46 52 59 63 64 68 68 61 57 64 66 64 66 69 70 77 84

GFSCGP_925_rhum_003.txt.gz
RH
14 15 17 16 17 17 17 18 17 14 13 18 17 15 11 9 8 9 10 12 12 12 11 14 18 22 24 23 26 24 25 25 26 24 24 25 28 29 30 29 32 35 30 34
18 20 18 17 17 17 16 18 17 15 14 17 17 15 10 10 12 11 12 13 14 14 14 16 18 23 25 25 25 23 23 24 27 23 24 23 24 24 26 28 33 39 36 35
17 20 18 17 16 19 16 21 21 22 19 15 16 13 11 12 11 12 14 15 14 16 15 16 19 22 25 28 27 26 22 23 25 24 21 24 27 28 26 26 30 36 41 39
18 18 18 18 18 21 21 20 22 24 24 22 16 17 13 12 12 13 14 15 16 16 16 16 18 20 23 27 30 29 26 24 24 25 24 22 22 22 21 21 22 24 29 37
24 18 18 18 22 22 23 22 25 24 27 24 19 20 13 13 13 13 14 15 16 16 17 18 18 19 21 24 30 32 30 27 24 23 28 26 27 28 25 26 28 31 34 36
16 16 19 20 21 22 22 24 21 24 26 35 24 22 15 14 14 14 14 15 18 18 19 18 18 20 21 24 30 33 33 31 27 26 26 32 32 30 29 29 31 34 31 32
18 19 19 21 24 23 24 27 40 40 35 34 22 27 19 14 14 14 16 17 18 19 21 21 20 20 20 22 26 31 34 33 29 27 29 32 35 36 36 36 35 33 37 34
28 31 20 24 28 34 31 31 47 66 42 36 23 27 18 13 13 14 17 18 20 20 23 23 23 23 23 23 24 26 28 30 28 28 30 33 36 40 40 36 37 36 33 34
38 30 24 25 28 28 32 40 31 45 42 55 34 20 16 14 15 18 19 18 20 23 24 25 25 25 26 26 26 27 29 30 28 28 29 36 42 42 36 34 38 37 34 33
38 48 30 29 29 27 33 30 47 48 85 63 34 31 26 20 18 17 19 22 23 24 24 25 25 26 29 30 30 30 32 31 32 29 34 43 43 41 38 39 39 38 38 38
36 48 42 34 33 34 36 39 37 34 42 66 61 38 22 24 24 23 22 23 24 24 26 26 25 27 30 32 32 32 32 33 35 31 41 42 41 39 38 38 37 39 40 39
41 48 63 45 29 27 30 36 36 54 54 50 60 58 24 24 23 23 24 24 24 24 26 26 27 31 32 32 30 30 32 35 32 36 40 42 41 37 38 40 39 40 42 41
40 54 66 38 34 32 35 30 32 38 50 69 90 60 21 21 24 23 23 24 25 26 28 28 29 34 35 32 29 30 32 35 34 36 39 40 38 41 42 41 41 42 41 40
47 52 60 65 48 39 47 40 36 41 79 66 61 49 35 29 27 26 26 26 26 27 29 29 34 36 42 34 30 31 33 35 33 34 35 40 44 42 41 43 45 43 42 42
50 68 52 47 41 40 41 42 40 41 44 61 50 41 33 29 27 27 27 28 30 33 32 34 42 47 53 37 29 31 32 34 34 39 43 51 46 44 45 45 44 44 43 42
46 79 68 79 54 47 53 43 40 39 38 38 39 40 27 26 27 29 34 35 40 38 36 40 52 59 52 35 30 30 30 35 43 49 54 46 44 45 44 43 44 41 38 36
66 90 95 88 56 76 94 69 50 42 33 34 45 37 28 30 33 37 40 41 42 44 44 51 65 59 49 39 32 31 39 51 75 51 48 45 44 44 44 43 41 37 35 36
85 99 97 99 98 92 36 28 28 33 30 30 30 29 34 38 39 42 43 47 71 67 54 73 64 59 49 46 41 47 74 62 55 53 44 40 40 42 44 42 36 35 37 39
43 90 100 100 78 56 47 31 36 44 45 32 34 39 40 45 48 61 48 66 69 61 78 59 62 59 64 70 79 92 92 60 46 38 38 39 41 45 41 36 36 39 41 43
48 79 99 99 99 90 41 32 32 33 52 41 44 46 58 62 89 78 65 62 72 77 58 56 64 76 92 93 90 72 52 39 38 38 40 42 43 40 37 39 41 41 41 44
97 100 99 96 96 69 40 31 34 69 59 51 49 52 59 65 66 63 71 73 70 58 57 68 85 88 74 74 58 43 42 41 36 42 44 43 40 38 41 41 40 40 46 60
70 99 100 100 100 94 31 35 73 64 52 47 51 54 63 67 69 74 79 77 59 55 60 85 93 68 63 61 53 42 34 34 40 44 44 41 42 45 43 40 40 47 54 61
72 60 70 61 61 40 37 42 40 41 48 58 64 51 68 73 70 71 78 62 56 66 86 88 74 71 64 47 40 34 39 41 45 46 44 45 49 48 41 41 47 51 51 67
76 57 73 73 53 44 43 45 46 48 60 46 51 53 54 62 66 75 66 58 60 90 98 87 75 59 45 40 40 37 46 50 46 46 50 54 53 46 45 49 49 50 62 75
70 73 80 76 58 52 57 55 44 49 47 44 49 52 56 67 65 79 69 56 86 98 95 77 62 50 40 39 41 44 47 54 50 54 58 58 53 52 54 55 54 58 70 86
74 78 88 95 67 68 56 40 38 45 54 51 49 41 37 42 61 65 65 85 98 97 88 70 49 42 38 39 43 48 52 53 62 66 66 70 58 57 58 55 56 62 75 80

GFSCGP_925_rhum_006.txt.gz
RH
11 18 18 16 16 15 14 16 16 15 12 15 17 16 13 9 9 11 11 13 14 13 11 11 14 17 21 22 25 25 24 26 26 28 28 29 30 30 32 31 31 35 36 37
13 21 16 14 13 14 13 15 19 17 15 18 18 16 12 10 12 12 12 14 16 16 15 16 17 20 22 24 25 26 25 25 26 28 27 25 27 28 30 30 31 34 36 34
14 20 14 14 15 18 15 22 23 24 20 15 16 13 13 12 12 12 14 15 15 17 18 18 18 19 23 26 28 28 27 25 25 27 26 25 25 26 28 28 29 35 36 39
16 15 15 16 16 19 22 19 23 25 26 29 19 22 12 12 14 14 15 18 18 18 18 18 18 18 20 24 27 30 30 27 25 25 27 27 26 29 28 26 27 27 33 39
24 18 15 17 19 19 24 22 26 24 26 26 20 20 14 12 12 14 16 17 20 20 22 22 22 20 20 21 26 28 31 32 29 27 27 27 27 28 27 29 28 28 31 33
13 14 16 18 18 19 21 24 23 21 26 46 24 23 21 14 14 13 13 16 20 22 24 23 21 21 22 22 24 28 32 34 33 31 29 28 29 30 34 32 34 33 34 34
18 17 17 20 24 20 24 31 52 59 54 50 22 26 24 17 13 14 16 19 22 22 25 28 27 26 25 25 25 28 32 34 35 34 34 30 32 34 35 38 39 36 38 36
31 34 21 22 26 32 30 33 61 68 54 50 30 31 18 12 12 14 15 17 21 23 26 27 28 28 27 28 29 27 26 28 30 32 33 34 32 35 38 41 40 37 38 36
42 32 22 24 24 27 31 38 31 49 54 64 43 28 20 15 15 17 18 19 25 25 27 27 27 27 28 30 31 31 32 35 32 32 33 32 34 37 41 42 39 40 38 36
36 52 30 26 26 26 31 29 49 60 89 64 38 39 33 24 26 26 25 25 27 28 29 29 29 28 32 33 34 34 36 34 33 34 34 34 39 44 44 38 41 41 41 46
34 47 45 36 32 34 32 38 39 36 51 71 76 47 29 31 29 29 27 27 28 29 29 30 30 29 33 35 38 38 33 32 33 36 37 38 45 44 42 42 42 49 48 55
42 50 70 49 31 25 27 34 35 73 68 61 68 62 30 28 25 28 27 26 27 29 28 30 30 30 36 40 46 46 35 32 34 36 38 46 44 42 41 40 44 54 48 53
44 57 67 44 34 31 37 33 33 38 63 67 94 66 28 29 29 26 27 30 30 31 31 33 32 37 40 46 53 53 35 32 35 35 39 43 44 41 39 49 55 62 50 44
45 51 58 72 55 43 51 41 38 43 66 59 58 48 35 30 29 27 31 35 33 33 33 33 37 41 45 52 55 46 33 32 36 35 36 41 39 40 46 48 51 51 46 46
48 72 55 50 46 47 51 49 44 45 43 56 48 40 32 28 27 34 35 37 38 37 40 49 51 45 50 54 54 41 36 33 36 34 34 38 54 58 63 49 48 46 47 47
51 85 77 83 59 51 56 51 48 44 40 39 39 39 27 26 32 37 40 41 45 53 57 58 49 54 56 56 54 40 34 33 33 40 62 81 78 55 50 48 45 46 46 43
61 88 100 84 65 75 89 62 49 42 35 36 48 37 29 31 43 48 49 46 61 62 62 57 62 63 57 55 52 47 50 67 78 88 86 78 75 50 45 45 45 46 42 40
69 98 100 100 100 94 42 32 35 40 36 34 33 32 31 40 49 50 49 63 67 71 66 64 62 59 57 60 66 74 85 78 79 84 82 68 46 42 42 45 46 40 40 43
40 99 100 100 88 63 54 40 41 46 49 35 42 48 51 53 62 64 56 68 81 70 64 64 55 58 66 75 88 92 99 97 93 61 43 40 41 42 45 43 39 42 45 45
63 96 98 100 96 90 50 36 32 35 64 57 60 65 71 69 95 88 63 67 66 63 59 51 59 68 74 86 89 76 71 64 42 41 41 40 43 43 40 40 42 43 44 45
99 100 99 92 93 74 45 35 41 81 93 73 67 76 71 79 82 76 63 66 63 58 48 57 67 78 81 69 70 58 43 42 44 40 41 44 43 39 41 44 45 43 45 52
69 87 95 99 99 90 35 42 80 62 59 61 72 74 77 68 65 62 61 67 60 54 57 67 74 75 73 70 75 50 36 38 41 43 44 45 42 46 49 46 44 47 52 56
76 64 72 63 65 45 41 46 50 55 64 71 66 56 61 63 60 62 67 60 64 65 74 77 76 73 75 65 40 38 44 40 43 44 45 47 52 54 48 48 50 54 56 66
67 53 74 73 54 48 48 49 53 53 61 62 59 63 60 54 47 47 55 63 60 74 82 84 82 72 57 47 39 44 46 50 50 50 52 56 58 56 55 55 56 56 63 77
71 64 74 76 64 56 56 55 54 55 54 62 61 63 40 39 38 40 61 59 74 88 85 85 69 65 48 39 40 42 48 52 51 57 62 63 69 64 59 61 58 58 70 75
68 73 87 86 61 72 64 52 49 56 72 62 43 38 35 39 54 62 68 72 80 83 81 70 65 43 40 38 40 43 51 58 68 78 78 84 71 68 65 64 65 66 70 75

GFSCGP_925_rhum_012.txt.gz
RH
20 27 26 20 20 20 21 25 28 26 23 30 30 33 28 19 20 24 27 28 28 28 30 25 22 24 25 25 24 23 24 24 24 25 29 30 30 32 33 33 33 43 42 40
30 27 18 18 21 22 24 30 33 32 26 30 33 34 26 20 19 25 28 28 28 28 32 30 26 24 22 22 22 23 24 24 25 25 26 26 26 26 26 27 32 42 40 39
29 20 16 20 25 26 25 30 32 36 36 32 31 32 21 18 22 23 22 24 24 27 28 30 28 23 22 23 22 22 23 24 25 26 26 26 27 28 28 27 28 30 34 41
21 17 17 25 24 25 31 25 31 37 41 46 32 51 28 20 21 21 23 25 26 27 26 24 22 26 26 23 24 24 26 26 27 28 27 27 27 30 27 27 27 29 30 38
26 18 18 24 23 24 29 30 37 38 46 42 41 42 28 19 21 22 32 32 30 29 29 29 28 24 22 22 22 23 25 26 28 31 32 33 31 29 28 27 29 29 29 32
20 16 20 20 24 27 30 38 43 46 48 65 41 40 38 35 29 34 30 29 32 31 30 31 26 26 26 26 27 27 28 30 30 31 32 34 35 36 37 34 32 32 32 36
39 27 23 24 33 34 41 55 77 64 76 68 43 47 36 29 27 25 26 28 28 31 36 33 29 32 32 31 32 36 37 35 35 36 36 35 37 39 43 43 42 40 46 47
62 60 39 28 32 36 40 51 81 76 84 74 50 51 38 32 34 33 25 28 29 30 35 35 38 39 38 38 40 38 41 43 41 37 35 35 38 38 37 39 45 50 47 41
65 54 40 34 31 33 40 58 42 59 70 86 67 50 32 30 36 36 34 38 40 40 48 46 42 41 42 44 46 48 48 48 44 40 44 39 37 36 37 44 56 54 47 53
49 68 47 45 38 35 35 38 63 81 82 88 72 62 54 42 44 40 42 49 50 47 46 47 46 45 46 45 47 45 43 48 51 52 38 39 39 39 40 49 45 46 55 58
52 64 61 49 50 51 50 60 56 58 80 97 97 84 49 44 46 51 45 48 45 46 51 54 52 50 48 46 46 50 54 59 57 39 37 40 45 45 45 43 44 46 51 59
52 68 82 59 48 42 42 54 61 88 80 89 87 71 39 44 40 44 47 46 48 48 56 60 57 56 55 54 55 58 59 60 43 41 40 46 46 44 44 44 48 51 53 53
48 70 82 56 46 56 57 51 55 66 81 84 95 77 38 37 41 50 58 57 56 56 62 67 65 59 60 58 58 61 63 49 44 44 43 46 45 43 43 45 50 54 55 54
55 67 66 76 57 65 72 60 53 63 93 80 75 67 52 48 62 64 66 65 61 64 66 68 71 65 64 64 64 66 56 51 51 43 52 51 49 47 51 56 56 57 55 52
60 76 71 70 65 66 65 66 66 69 68 87 68 65 55 71 69 68 66 64 65 68 70 69 72 69 69 68 67 66 57 65 62 56 49 60 68 68 65 64 68 77 75 56
68 84 78 84 74 77 83 71 70 70 68 66 66 62 69 68 69 70 69 66 68 73 72 62 69 72 72 69 69 64 69 74 79 73 77 83 91 84 95 97 72 75 63 56
74 86 97 73 92 91 91 74 67 58 56 58 75 66 73 77 79 78 73 72 72 78 72 68 74 76 72 70 70 73 82 91 90 93 96 98 98 91 68 70 76 68 54 44
83 96 96 93 98 98 61 50 50 57 58 57 74 76 80 74 69 69 70 73 79 70 68 69 78 75 72 71 69 78 78 82 90 86 85 83 84 85 77 65 53 45 43 44
75 98 96 98 96 75 69 56 53 69 73 74 84 73 70 66 73 66 62 70 72 66 73 75 76 72 72 72 74 80 77 70 77 88 77 58 48 46 46 43 44 47 48 47
89 92 90 93 97 93 63 49 57 62 86 77 73 76 68 68 95 79 83 64 59 68 76 77 70 74 73 75 76 78 65 54 53 44 50 50 45 45 47 51 52 49 49 53
98 97 93 100 97 84 61 52 52 77 64 71 66 66 82 92 91 86 72 56 57 69 76 80 78 78 79 77 77 73 45 44 43 44 47 49 50 52 55 54 54 54 56 60
72 89 95 99 99 93 55 55 69 66 66 62 68 81 87 86 82 75 64 69 78 84 83 81 85 87 82 75 84 61 43 44 46 47 50 53 56 60 60 60 58 60 64 70
81 71 80 79 80 60 58 56 58 61 66 75 84 86 83 83 79 75 79 75 77 84 85 84 85 86 75 70 59 46 49 46 49 50 55 60 66 71 65 62 67 68 68 66
72 66 88 77 59 59 59 54 56 64 77 88 83 80 82 82 76 81 75 71 80 86 81 81 91 91 81 63 45 45 48 52 54 58 62 74 78 69 69 71 71 71 67 76
84 87 86 82 73 67 62 65 67 80 72 73 69 78 70 75 79 78 80 82 84 80 90 98 97 79 53 50 48 51 56 57 59 63 70 78 74 74 69 73 77 73 75 82
81 73 92 88 64 70 68 67 70 76 71 71 62 63 70 70 74 78 85 84 90 91 94 83 63 60 60 56 61 62 65 69 72 72 72 78 78 81 68 76 81 74 78 68

GFSCGP_925_rhum_015.txt.gz
RH
25 29 24 21 21 21 21 28 34 28 25 33 36 40 34 29 24 26 29 26 31 30 33 30 24 25 25 28 30 28 27 26 30 30 30 31 29 30 30 29 28 31 34 44
31 26 19 21 24 23 27 29 32 34 29 36 38 37 24 22 22 28 33 34 32 34 37 37 32 28 26 25 26 25 24 25 24 25 25 26 26 26 28 28 28 31 29 29
31 21 18 22 27 27 26 30 31 36 37 33 38 34 25 22 25 24 26 28 29 34 35 34 31 27 25 24 23 23 23 24 25 26 27 27 28 28 28 28 28 27 27 28
23 18 19 27 25 26 33 25 31 37 42 47 38 46 29 23 22 29 31 30 26 27 28 29 29 28 24 22 23 24 24 26 27 29 30 30 30 33 29 29 29 29 29 29
26 18 24 26 24 26 34 35 39 39 46 44 41 43 36 33 25 32 31 30 31 30 30 30 28 22 22 24 24 25 27 31 34 37 38 39 40 39 39 39 39 36 34 34
31 19 22 23 25 30 34 41 47 50 52 62 42 45 48 38 32 32 29 33 31 31 31 31 30 28 28 29 32 34 33 35 36 38 40 40 41 40 44 43 46 46 47 46
46 37 32 27 35 36 43 58 71 58 75 67 48 47 46 32 28 26 28 27 30 34 36 38 39 36 37 39 40 40 42 42 41 40 40 39 41 42 44 43 44 43 50 54
63 56 43 34 33 38 41 52 80 62 85 78 53 54 43 31 36 35 32 34 42 42 39 46 48 47 47 47 45 44 44 44 43 44 45 47 44 38 38 39 42 49 64 58
70 55 42 38 40 36 43 60 48 68 75 89 72 54 41 36 44 44 43 47 54 55 54 53 51 50 48 46 44 44 47 50 51 56 51 41 42 40 38 42 43 53 63 59
56 73 49 48 39 39 40 41 66 84 83 83 76 71 61 44 52 44 50 54 55 55 58 60 56 50 47 49 50 51 54 56 61 55 45 48 46 42 42 45 45 54 59 63
51 66 60 46 49 51 57 64 63 64 82 96 98 83 56 50 53 53 55 56 58 53 60 63 60 54 55 54 56 59 59 63 63 46 51 50 43 48 50 49 49 56 60 63
54 70 81 56 50 50 48 63 65 89 82 90 90 76 44 44 51 60 66 64 62 54 62 66 62 59 59 60 62 64 66 67 50 53 53 50 46 53 53 49 50 52 53 53
50 72 79 52 46 47 57 57 62 72 83 82 91 76 47 44 61 62 68 68 64 60 62 63 66 63 64 64 67 65 66 59 58 62 59 52 51 52 50 54 55 55 56 56
56 68 64 76 51 64 72 66 63 66 93 82 78 64 53 56 71 72 73 70 68 66 64 67 71 67 66 67 69 67 67 61 68 71 71 62 54 51 52 60 64 65 68 76
62 74 71 72 68 70 71 74 71 81 79 87 73 73 62 70 76 75 71 72 66 62 66 70 72 71 69 72 70 70 66 69 71 78 85 74 71 72 77 91 98 97 94 68
73 82 82 86 78 81 86 77 80 80 79 81 77 71 58 70 75 80 81 71 73 74 76 77 68 67 74 77 71 70 70 70 78 90 89 91 97 98 98 96 78 79 75 82
75 89 94 82 93 93 81 76 76 66 57 62 77 64 75 84 83 74 71 74 79 76 70 60 66 72 77 78 76 75 71 78 78 84 89 88 87 95 94 83 89 86 66 48
94 96 98 91 93 94 56 51 52 63 59 60 68 76 80 82 74 69 74 81 84 68 54 57 58 76 86 78 73 73 76 80 82 89 93 85 86 88 77 57 52 47 48 50
82 97 98 98 98 77 63 54 54 60 67 71 80 77 68 67 76 74 85 74 71 67 57 65 82 79 76 71 74 78 82 59 75 71 53 54 60 58 48 48 51 52 50 52
92 88 92 97 99 96 65 47 56 66 90 77 76 77 76 81 92 84 81 68 65 65 78 79 79 79 81 76 82 83 79 51 55 52 52 51 48 50 54 55 54 56 57 61
99 98 97 98 95 88 65 54 50 81 69 69 70 69 82 93 89 89 75 70 70 73 77 80 85 90 89 83 86 98 63 62 49 49 50 51 54 58 59 60 61 61 65 66
75 86 95 98 100 93 56 57 72 71 62 67 73 80 86 85 83 78 79 77 75 76 82 82 86 88 89 79 76 76 63 53 50 51 51 53 59 66 69 65 66 68 68 67
80 70 81 79 80 61 56 59 61 60 72 75 88 86 86 84 75 78 79 80 72 78 86 84 82 97 96 72 59 56 52 51 57 56 59 66 74 72 69 72 72 72 69 75
80 72 88 77 64 57 61 57 55 64 78 86 84 78 70 73 72 81 79 81 84 85 90 95 89 86 63 67 65 71 60 56 59 63 68 74 76 72 70 65 76 80 80 82
86 85 88 84 72 72 65 68 74 86 88 80 81 84 80 71 77 78 80 83 83 90 94 87 84 72 74 65 64 66 64 66 67 69 70 74 76 81 72 68 77 83 74 85
89 84 88 90 66 71 69 84 86 84 84 79 75 69 62 70 80 71 84 78 84 94 84 82 74 72 65 60 63 67 69 73 76 78 80 84 88 87 73 75 83 76 72 78

GFSCGP_925_rhum_018.txt.gz
RH
29 30 27 22 22 22 22 28 33 31 27 36 38 42 32 27 30 34 32 28 25 27 34 32 26 25 28 27 28 32 32 29 29 31 35 30 27 27 28 28 27 27 28 31
31 27 21 26 25 23 26 30 30 33 32 37 40 39 27 29 31 34 38 39 36 34 36 38 33 30 28 26 27 30 27 26 26 30 32 30 30 29 29 28 28 28 28 28
32 22 23 24 28 32 31 28 30 35 38 35 38 32 30 22 27 30 31 29 30 34 34 34 33 30 28 28 26 25 25 28 29 29 30 32 32 32 31 30 31 32 33 32
26 19 25 29 27 30 36 26 31 38 45 47 39 43 34 35 29 33 29 30 32 31 30 32 31 30 26 27 27 28 29 31 36 40 40 42 44 46 41 42 41 39 37 38
27 20 27 32 28 28 37 39 42 40 49 46 46 42 35 36 32 33 35 33 30 31 33 32 30 30 32 32 35 37 40 44 46 45 45 44 44 47 50 46 43 42 42 44
36 24 26 26 27 34 36 45 45 54 55 63 47 47 50 43 34 33 33 32 32 34 36 36 35 36 40 43 43 43 42 42 41 40 41 48 52 46 43 42 43 41 42 46
48 39 39 32 39 39 47 56 62 59 74 67 50 49 50 38 37 39 44 46 53 54 46 54 57 54 50 46 44 44 45 45 48 45 49 47 44 48 48 42 44 45 46 48
66 49 44 38 36 41 44 56 76 51 85 81 56 54 49 36 44 39 45 55 58 60 61 63 60 55 51 48 47 48 51 52 51 49 56 49 51 52 43 42 46 50 52 58
73 54 46 42 44 39 44 64 52 73 76 89 73 57 42 46 52 51 58 58 62 64 66 64 57 52 49 48 49 54 54 53 56 58 60 50 54 52 44 39 42 50 56 65
57 71 50 48 40 42 45 46 64 85 84 80 74 71 59 57 57 56 61 67 64 59 63 61 55 53 51 54 56 60 61 63 63 61 50 58 57 54 50 44 49 61 64 70
51 67 54 45 51 55 59 64 67 70 84 94 97 81 56 57 55 57 67 66 67 61 61 66 60 58 57 56 59 64 59 61 60 54 59 63 59 57 52 53 59 68 74 74
57 71 79 53 46 52 54 58 66 84 74 91 92 80 48 53 54 65 68 70 68 65 64 65 62 62 64 59 60 65 60 60 61 60 66 62 67 67 60 60 67 74 76 68
52 73 77 44 52 49 62 59 66 75 84 83 89 74 47 50 58 68 72 73 72 69 68 66 61 66 64 61 60 67 67 67 63 69 68 68 79 67 60 63 67 68 69 77
60 71 61 69 51 56 71 67 67 71 90 80 77 63 52 52 65 77 78 77 76 76 61 64 74 72 66 64 67 72 72 70 72 71 68 84 78 68 79 94 99 100 99 99
63 75 75 72 71 73 76 79 78 85 79 88 68 76 65 66 73 78 76 76 74 70 75 78 75 60 56 62 71 80 78 74 72 75 80 89 79 85 98 97 97 97 83 75
75 80 84 91 83 86 94 82 82 83 84 83 80 86 65 70 77 74 78 80 78 85 84 61 51 46 48 70 88 84 76 72 76 75 83 90 86 96 92 84 82 86 90 99
76 87 92 85 89 90 74 58 77 70 68 62 70 56 71 77 78 77 80 81 90 80 66 59 53 64 85 86 78 77 78 81 84 85 88 97 96 96 95 88 82 92 72 52
98 94 98 93 90 91 54 53 52 63 61 60 63 69 76 77 72 78 81 83 81 73 71 67 79 84 83 84 83 85 85 77 73 88 86 78 67 61 59 56 51 51 52 51
85 98 96 98 92 78 62 52 53 67 64 58 69 75 74 70 80 74 82 75 73 74 73 80 78 84 82 82 88 88 85 70 70 79 74 60 56 51 50 53 55 54 56 58
92 88 93 99 96 97 65 47 59 63 85 64 72 70 73 76 95 82 82 77 73 72 70 76 80 82 85 86 88 94 89 54 63 56 56 55 54 54 56 58 60 62 64 68
98 98 99 96 98 88 66 57 51 81 68 70 68 70 72 86 90 86 74 72 76 70 70 78 83 81 83 86 90 85 84 74 63 60 75 55 56 62 67 68 67 69 70 70
72 86 94 98 99 94 58 57 67 63 64 60 67 76 86 91 86 74 72 80 77 69 73 82 88 79 90 67 67 61 64 58 76 65 60 63 66 72 70 70 69 71 75 73
83 71 79 79 83 63 54 59 56 60 70 76 82 88 87 87 74 65 75 82 74 70 81 87 93 83 62 67 62 62 68 70 65 63 63 66 71 72 73 67 68 78 81 82
74 72 83 75 65 65 66 64 63 70 76 89 92 90 82 76 71 73 80 81 73 74 81 89 87 82 74 69 72 73 69 63 65 66 67 69 74 76 78 72 72 82 83 81
88 82 90 88 74 74 74 72 78 89 89 90 86 80 79 78 77 73 82 75 73 76 80 92 88 86 79 72 64 67 67 69 70 70 76 81 86 89 90 77 78 84 78 82
88 85 93 86 64 77 81 97 87 92 93 73 75 73 70 72 76 78 83 73 76 77 81 91 82 80 74 63 68 69 64 74 78 81 86 83 83 91 92 90 89 83 79 79

GFSCGP_925_rhum_021.txt.gz
RH
28 24 26 24 24 24 23 28 30 28 28 31 35 32 23 26 27 30 30 28 24 25 30 31 24 24 28 34 39 36 34 32 41 46 46 40 35 31 29 29 30 31 32 34
26 28 23 26 25 24 27 29 26 29 30 35 33 27 24 26 28 30 29 30 30 29 29 33 32 28 29 30 31 34 46 45 40 38 43 40 34 32 31 32 35 38 39 40
32 23 24 24 30 33 32 28 31 32 34 35 32 28 28 23 25 25 27 28 29 30 30 31 34 40 39 39 39 40 36 35 37 40 40 41 41 43 44 45 42 39 38 38
27 22 28 33 30 32 37 29 36 40 40 36 37 31 31 31 28 30 31 30 28 27 28 30 34 38 44 40 38 39 44 46 45 44 44 46 55 54 53 55 52 42 39 39
27 25 32 35 30 31 37 40 43 42 44 42 40 32 32 31 34 35 33 35 37 37 35 34 40 46 54 48 48 47 46 45 46 44 45 55 58 59 62 63 60 54 44 37
36 30 30 31 29 35 39 43 42 48 47 49 46 40 43 39 41 39 38 45 49 46 43 48 52 52 52 46 44 42 43 44 50 49 56 58 51 54 59 56 53 48 51 50
43 38 38 35 37 38 42 44 46 50 55 51 47 43 48 45 41 42 48 51 52 52 52 50 50 49 52 54 50 52 51 58 53 46 39 43 50 54 61 59 55 56 57 64
55 40 42 42 40 42 47 49 60 50 60 58 53 51 48 44 44 47 48 50 51 52 53 51 52 55 55 58 58 61 62 51 41 41 45 51 53 60 61 60 59 62 68 73
64 47 44 45 45 40 46 58 51 66 73 74 55 50 44 49 48 48 50 51 52 52 53 49 50 54 58 57 59 55 54 49 46 49 51 52 59 59 63 65 63 68 68 74
59 63 49 45 42 42 43 46 56 66 73 67 52 59 45 51 48 51 56 58 56 51 48 45 48 54 59 62 60 57 61 62 58 60 58 62 68 70 71 67 65 70 81 97
52 61 46 44 53 55 52 56 62 61 72 82 89 54 49 49 49 49 59 61 59 56 51 51 55 58 63 66 65 66 70 74 73 77 66 70 71 71 70 65 65 79 92 94
58 65 64 46 51 51 52 56 56 63 64 77 79 62 43 49 52 55 63 63 59 58 56 57 60 65 65 60 53 58 71 78 78 68 70 74 65 66 62 70 79 89 83 93
54 66 57 34 48 45 58 58 61 67 74 75 83 55 41 49 53 61 61 58 56 60 58 58 61 59 53 49 55 68 79 83 79 77 79 84 83 69 77 94 95 99 99 98
61 67 52 48 38 49 63 65 64 65 86 66 68 51 44 43 50 60 58 54 59 61 62 62 58 54 49 51 68 79 80 81 79 80 84 90 81 89 94 100 99 99 96 92
62 74 71 66 62 68 70 70 68 73 68 79 59 57 50 48 57 59 54 61 62 60 67 64 53 48 57 73 71 67 73 78 83 88 89 92 94 98 89 96 95 92 92 95
72 75 84 90 77 76 81 67 70 73 72 74 70 72 52 56 65 64 60 60 65 76 68 57 54 67 68 61 67 78 81 88 92 83 89 97 100 100 100 92 93 93 100 95
76 84 87 78 80 79 73 55 67 66 68 63 63 46 62 71 64 59 59 67 79 71 61 61 68 64 66 73 83 87 90 91 82 86 90 86 77 83 85 79 60 55 59 61
99 97 95 95 86 81 47 50 50 56 52 51 55 54 54 63 57 59 64 76 73 68 62 69 66 67 74 79 85 94 92 81 77 72 77 67 65 62 61 58 61 62 62 63
81 98 98 96 89 71 56 47 52 62 54 50 58 65 59 57 67 60 76 70 66 64 70 69 70 76 78 77 88 89 90 78 62 65 63 65 62 62 62 61 64 66 67 68
86 85 92 99 99 92 61 47 62 60 68 60 64 63 65 64 96 81 77 79 67 66 71 64 72 81 76 73 87 85 82 90 74 71 69 70 61 66 68 71 71 71 72 70
98 96 95 89 89 81 61 55 51 79 68 65 70 66 68 77 82 84 87 71 67 75 67 70 78 82 81 79 74 68 68 84 63 71 71 64 66 73 74 73 72 70 72 81
70 84 94 96 95 94 54 56 67 59 61 62 67 69 77 91 91 85 60 60 64 71 67 66 80 83 82 65 64 61 61 64 71 69 68 72 76 75 74 72 69 72 77 85
81 68 75 76 78 60 55 59 56 59 75 80 81 90 93 97 72 64 62 60 63 73 65 71 82 87 79 74 71 74 72 74 69 68 72 72 76 76 78 76 76 78 79 82
72 67 81 73 63 59 61 56 74 88 95 92 92 93 88 63 64 68 62 59 65 71 68 73 83 86 82 79 77 78 69 66 70 73 73 76 80 84 87 87 80 82 84 83
71 82 87 86 73 67 68 91 90 91 87 74 63 60 61 67 66 66 64 64 71 74 74 77 85 90 85 82 79 68 69 71 75 80 81 80 84 90 93 89 88 91 95 91
88 86 95 89 66 77 92 93 90 90 72 61 62 67 62 55 57 65 64 70 72 72 76 81 88 89 84 80 73 70 72 72 84 83 83 87 91 92 90 86 86 88 82 82

GFSCGP_925_rhum_024.txt.gz
RH
17 14 17 17 17 16 15 17 17 16 19 23 23 18 18 18 17 18 18 18 19 20 24 25 30 30 31 40 45 50 48 53 52 49 45 39 37 35 35 35 40 51 50 53
15 20 18 17 17 18 19 19 20 20 22 26 22 19 18 18 20 20 19 20 19 19 22 26 32 37 39 42 45 44 44 43 40 36 40 43 44 39 44 46 47 46 50 50
17 18 19 19 22 23 23 23 27 27 24 25 22 22 19 19 19 19 20 19 20 22 23 24 30 36 39 43 41 39 42 45 49 46 42 42 40 39 38 41 41 45 50 49
19 20 23 23 25 26 25 24 31 30 29 21 26 24 24 21 23 24 26 28 28 26 23 26 31 38 44 48 47 46 46 45 49 53 46 50 45 43 48 49 48 50 46 47
22 22 25 26 28 28 31 33 33 33 31 28 26 23 28 22 28 29 31 33 33 31 32 32 36 41 45 50 51 50 46 48 51 53 56 53 51 48 49 51 50 47 42 43
24 23 25 28 27 28 31 32 32 34 34 38 33 31 28 27 32 31 33 36 38 36 35 36 38 38 41 47 50 49 47 46 52 56 59 60 58 54 50 46 43 38 39 38
26 28 27 29 27 29 27 32 33 43 43 37 34 33 37 35 33 34 36 38 38 37 36 35 36 38 43 46 49 47 47 44 46 49 49 50 48 47 45 45 44 48 44 44
32 35 31 33 34 36 36 36 45 48 39 35 38 31 37 34 32 34 35 36 37 38 38 36 37 41 44 48 51 52 49 46 45 44 45 47 49 50 52 52 55 53 52 54
38 34 34 35 33 34 37 43 40 52 58 56 32 36 36 36 38 36 36 35 37 38 38 35 37 41 44 47 51 54 48 45 45 46 50 55 56 62 62 59 58 52 58 62
43 42 37 32 34 35 36 36 47 45 77 48 25 33 28 43 38 38 38 38 40 39 38 38 39 43 46 48 49 53 49 49 52 54 60 60 65 64 64 61 57 62 68 75
34 43 36 33 37 41 40 43 45 42 54 59 55 27 33 33 35 39 39 43 42 42 42 40 43 46 48 47 46 44 50 54 56 60 62 66 69 68 62 58 61 71 80 89
44 45 38 31 38 39 39 42 39 52 52 54 54 40 29 30 37 41 42 45 43 41 37 39 43 44 41 42 41 48 55 56 55 55 58 63 66 67 60 65 70 74 80 98
43 45 34 34 40 41 43 41 44 43 56 57 72 41 28 35 39 32 43 39 37 37 36 38 41 42 41 40 47 50 45 44 47 52 56 58 62 64 68 76 85 93 94 94
50 46 34 31 26 32 35 33 38 44 70 50 46 37 29 26 27 33 38 39 38 39 38 42 44 42 40 47 45 38 41 50 56 61 59 57 68 76 84 86 89 81 73 70
47 50 45 40 37 36 41 44 39 45 47 58 47 35 30 29 32 35 40 41 41 41 45 47 46 39 45 40 39 43 54 58 62 60 56 62 82 97 98 98 91 87 73 68
52 58 66 66 46 43 50 42 40 44 45 44 43 46 30 32 35 43 43 43 45 47 52 52 46 45 44 42 45 53 57 62 63 59 57 70 78 78 78 77 68 57 52 49
62 70 75 84 59 62 80 48 39 42 39 44 51 36 34 37 44 47 46 47 50 56 56 47 44 48 45 48 49 55 62 60 61 60 58 58 58 57 55 51 49 50 52 50
91 89 91 97 91 86 43 34 36 41 39 33 34 34 42 44 43 44 45 56 62 60 52 44 50 47 48 47 45 54 55 60 61 58 60 56 57 53 52 52 54 53 49 51
64 90 99 97 77 50 43 36 41 45 48 38 43 46 45 45 50 48 59 68 74 62 56 53 50 50 51 45 47 52 53 49 57 60 65 68 60 56 54 56 53 51 53 53
70 77 89 90 96 78 40 37 45 46 54 47 51 57 60 74 96 84 79 71 69 69 45 53 53 51 48 44 52 50 44 46 50 56 56 57 58 58 58 52 53 54 52 54
97 94 95 86 95 66 40 44 43 75 71 54 53 64 77 90 90 90 76 67 50 42 47 51 52 51 49 53 53 50 44 41 45 51 57 57 60 57 52 54 53 54 56 65
65 98 99 93 98 93 41 46 72 60 55 53 61 70 86 90 82 67 54 45 38 32 30 39 50 50 49 55 52 49 46 43 50 57 57 58 57 54 54 56 55 58 60 66
64 52 54 56 57 39 38 47 45 53 63 77 90 90 84 73 64 48 40 35 33 37 40 46 46 49 52 57 56 52 49 54 57 58 56 57 56 58 59 61 60 62 64 74
48 46 67 64 48 43 45 46 71 73 88 87 85 85 70 56 40 40 31 31 35 37 40 41 43 45 48 53 58 59 60 61 59 59 57 57 57 64 62 62 61 64 72 84
52 49 58 60 56 56 54 71 83 87 85 71 50 45 47 42 37 30 28 29 32 39 40 44 49 51 52 54 58 59 61 62 62 61 64 63 65 70 70 67 68 73 78 86
54 56 76 85 64 78 88 92 88 82 57 41 40 38 34 29 28 29 31 32 36 40 47 50 50 51 52 52 58 58 59 62 62 64 65 66 78 77 73 69 69 78 86 78

GFSCGP_925_rhum_027.txt.gz
RH
12 13 13 12 12 11 10 10 11 12 13 14 15 14 14 14 13 14 14 15 16 19 23 26 30 30 29 36 35 42 45 51 48 42 39 34 33 33 33 33 40 48 48 50
11 15 15 12 12 12 13 15 15 15 15 17 16 15 15 16 17 16 16 17 19 20 22 26 30 34 36 37 37 38 39 40 38 33 37 41 42 38 40 41 43 42 46 50
13 16 14 15 15 16 17 18 21 20 17 16 17 17 17 16 16 17 17 18 18 19 22 25 31 37 39 39 37 38 40 41 44 41 37 37 35 35 35 36 42 44 50 49
15 15 16 17 19 20 20 20 23 23 21 20 17 19 19 18 20 22 24 25 24 21 22 26 31 36 41 43 42 40 40 40 43 48 42 48 45 43 42 47 47 48 47 43
19 18 19 21 23 22 24 25 25 24 24 19 19 17 21 18 23 25 27 28 28 28 28 29 31 36 42 46 46 44 40 41 45 49 52 53 50 47 43 42 42 42 36 38
17 17 20 22 22 22 22 26 23 25 23 32 18 21 24 20 22 27 29 30 30 30 30 30 32 33 36 43 45 44 42 40 41 45 47 48 48 46 41 40 41 38 43 41
20 22 21 24 23 23 22 25 34 37 36 36 25 25 29 27 26 27 30 32 31 30 31 30 31 33 37 40 43 45 41 41 40 42 43 44 45 44 42 44 45 52 48 44
24 35 25 23 26 28 27 28 42 45 37 29 25 23 30 26 27 28 28 29 30 30 31 29 31 34 36 38 41 46 45 40 38 40 43 45 47 47 51 53 57 54 49 48
28 29 25 26 25 26 30 35 29 38 50 46 21 28 30 28 30 30 29 29 31 30 30 29 31 34 37 37 38 42 45 42 42 44 46 51 55 54 55 56 56 52 53 54
30 36 28 24 25 28 27 28 40 38 69 43 19 21 21 36 33 31 30 31 32 31 31 32 32 34 38 39 39 41 40 41 44 48 52 50 51 50 52 54 52 52 58 83
23 29 29 22 27 25 27 32 34 31 37 50 43 26 23 24 24 26 28 29 30 32 33 31 32 35 37 36 37 37 42 45 43 40 39 41 45 48 50 50 52 59 69 78
32 30 34 22 25 27 28 30 30 44 40 41 51 42 22 21 25 28 28 30 33 32 30 31 33 35 37 36 36 39 40 33 32 33 35 41 46 47 49 57 71 69 71 75
33 36 35 27 32 32 33 28 30 33 46 48 64 42 22 24 28 29 30 29 30 30 30 31 34 38 38 36 38 36 30 33 38 41 44 44 46 57 66 71 75 72 76 78
46 33 32 36 27 23 28 26 23 28 51 50 42 31 23 22 25 25 24 27 30 31 31 34 36 38 38 37 35 32 32 38 44 46 46 45 55 70 75 93 92 96 84 81
39 47 32 32 26 24 25 28 28 31 30 47 38 33 28 26 28 28 28 32 32 32 34 39 42 41 37 36 34 34 36 40 45 47 45 46 65 69 79 84 79 71 66 49
38 52 56 52 31 25 29 28 28 28 30 32 33 34 28 27 25 28 32 32 35 40 42 47 42 41 40 34 37 36 36 42 46 45 44 48 56 55 56 58 54 50 49 49
49 60 59 76 52 55 75 43 28 29 29 32 44 34 26 29 34 40 45 47 52 64 52 46 46 46 42 37 38 34 36 37 41 45 43 49 52 54 55 53 52 50 47 40
73 66 86 93 88 85 30 24 26 30 29 28 29 29 32 34 42 45 53 60 62 59 55 51 54 45 36 39 40 34 35 34 36 37 43 46 56 58 53 46 45 42 40 42
47 71 92 95 64 42 35 33 37 41 44 31 36 39 37 40 45 45 56 62 63 58 57 57 44 38 40 38 37 36 36 33 32 36 41 48 54 47 45 42 41 42 42 43
54 63 80 88 96 76 35 29 34 35 54 40 44 47 50 51 80 79 81 67 57 58 49 35 34 33 35 36 37 39 38 35 34 34 38 46 46 46 43 41 42 43 42 42
90 92 94 83 93 58 33 36 36 65 69 51 50 72 82 89 93 82 71 65 55 39 32 26 26 30 33 36 36 37 37 35 32 35 43 49 47 45 42 42 43 42 42 50
74 94 97 86 96 85 34 38 66 59 51 67 65 79 86 80 76 68 55 37 32 28 26 27 28 30 30 32 32 33 38 35 38 46 49 50 48 46 43 45 44 43 46 56
52 48 58 60 58 37 36 46 55 55 64 75 86 80 80 69 52 37 35 29 24 22 21 24 26 27 29 31 32 32 42 53 63 56 53 54 53 46 43 44 44 46 52 62
40 33 66 60 43 38 44 50 61 64 72 77 75 66 50 41 39 33 24 21 21 20 23 24 27 29 32 31 30 32 39 57 65 53 58 62 54 49 53 50 47 53 62 76
48 41 48 58 46 51 73 80 80 77 78 69 45 38 37 34 29 25 22 21 22 23 23 25 30 31 31 33 34 35 37 57 56 67 85 68 52 53 69 62 57 61 69 81
47 48 66 80 74 83 90 86 79 77 50 38 36 35 30 27 25 24 26 27 27 28 30 30 30 34 38 39 42 49 67 62 72 94 88 59 65 70 74 70 63 68 84 84

GFSCGP_925_rhum_030.txt.gz
RH
12 14 15 12 11 9 9 9 9 9 12 12 11 12 13 13 12 14 14 15 21 28 29 33 35 35 36 36 41 46 50 53 49 45 41 38 38 36 35 34 40 45 44 48
11 14 14 11 11 10 10 12 13 13 13 14 14 14 14 15 16 16 18 22 24 27 29 33 37 38 36 36 36 37 41 42 40 38 38 38 39 40 40 40 42 42 45 50
17 16 12 12 13 14 13 15 21 19 15 14 15 16 17 16 16 17 19 20 21 25 30 34 38 41 40 40 37 38 39 42 46 41 39 41 40 39 38 44 45 47 49 49
16 13 13 14 16 18 18 20 21 19 20 21 15 22 19 18 20 21 24 25 23 24 27 31 36 42 45 45 42 40 40 41 45 48 49 51 52 50 48 44 44 44 43 41
17 16 17 18 23 19 22 21 21 22 24 22 17 24 18 18 23 27 28 28 29 29 30 32 35 40 45 47 46 44 40 39 42 46 49 50 50 51 47 43 42 43 46 47
16 15 19 21 19 20 19 23 22 23 24 40 23 19 24 21 22 28 29 29 30 31 31 30 31 33 41 42 44 45 41 41 40 42 44 44 46 47 46 46 48 53 55 52
19 20 20 19 22 21 21 24 45 52 49 49 24 24 30 26 23 26 31 32 32 32 32 31 30 32 35 38 41 43 44 43 39 40 43 45 47 51 51 53 56 60 58 54
24 36 23 20 24 26 25 25 53 55 64 50 24 25 35 26 26 26 27 29 30 32 31 29 30 32 36 36 37 40 43 43 41 42 46 53 56 56 55 55 58 58 55 54
25 30 22 22 21 22 26 37 25 33 45 61 28 31 28 27 29 28 28 28 30 30 30 30 31 32 35 37 38 40 42 40 40 44 48 48 48 50 51 52 54 52 54 66
25 34 23 19 20 26 24 21 39 46 69 51 25 25 41 33 32 29 28 30 30 28 29 30 31 32 34 36 36 38 38 41 43 40 36 36 38 43 46 48 51 60 64 74
22 29 28 20 26 23 25 27 28 27 36 56 57 33 22 24 25 28 27 25 28 32 32 31 30 33 36 38 37 36 39 40 33 34 35 38 43 45 48 56 66 69 67 68
27 28 41 22 20 22 24 28 28 62 47 57 60 48 20 21 25 26 28 29 30 30 29 30 32 37 39 38 37 37 36 30 34 36 40 43 45 47 57 61 66 72 73 67
34 37 50 34 32 29 24 22 23 29 52 58 72 46 19 22 37 32 31 32 34 34 29 32 34 37 41 39 37 36 33 32 35 39 42 44 45 58 70 77 80 78 76 73
46 31 31 42 27 22 24 21 20 25 61 54 52 38 28 26 34 30 28 31 30 30 34 37 39 41 41 39 38 36 34 34 37 40 43 44 53 63 71 74 80 77 75 77
37 46 32 30 24 23 22 21 21 24 29 44 38 31 28 31 29 28 39 39 37 41 44 49 46 42 41 42 40 35 36 34 37 40 44 43 52 57 60 58 61 58 55 52
36 56 60 57 27 27 30 25 28 25 27 26 30 33 27 25 35 41 42 47 45 57 58 53 44 44 46 46 40 36 36 34 35 37 41 42 46 53 54 57 56 54 52 53
47 67 71 78 60 63 80 52 29 27 27 31 44 32 27 39 46 47 48 52 57 58 56 52 50 50 50 47 36 38 38 34 35 34 35 37 44 55 57 57 53 50 48 42
73 70 93 93 90 77 30 24 26 30 29 30 29 29 40 41 42 49 55 61 64 59 56 53 51 51 49 37 36 36 37 35 36 34 32 34 45 46 53 55 47 45 42 43
43 79 90 98 70 46 35 32 39 45 47 33 43 48 50 53 49 56 65 66 64 60 55 52 47 37 30 29 32 38 35 36 36 38 34 36 40 47 49 47 47 42 42 44
47 71 89 92 89 76 40 28 32 34 59 52 57 66 71 64 85 74 68 66 63 57 43 33 29 26 27 28 29 31 32 32 34 40 48 62 58 48 52 50 45 42 43 44
90 84 87 77 88 67 36 33 34 61 75 66 66 75 79 83 80 69 62 58 47 33 27 23 22 23 24 26 28 30 28 28 45 59 65 57 56 56 52 48 43 43 44 49
80 91 94 85 91 85 34 44 82 66 59 67 68 74 70 68 64 58 43 34 29 23 21 20 21 22 25 26 28 28 28 30 39 54 62 70 79 60 57 46 44 46 47 56
56 61 71 71 72 46 44 62 62 64 72 72 69 61 68 56 41 37 33 27 23 21 20 21 21 23 25 28 29 30 32 39 52 68 85 75 68 69 66 51 48 49 56 70
34 29 65 57 43 38 58 63 65 68 75 70 64 57 42 40 37 33 26 23 23 24 25 25 27 28 29 30 33 35 40 48 63 68 85 84 88 81 56 60 60 58 62 71
52 44 48 51 41 42 72 74 75 78 69 57 43 35 34 32 30 26 27 26 25 26 27 29 31 32 32 33 39 44 50 66 73 95 89 92 85 66 69 68 65 63 69 74
50 49 68 74 63 63 83 87 82 76 54 38 36 34 28 25 26 26 28 26 27 32 33 35 36 39 42 43 48 48 67 76 83 96 96 91 88 75 73 72 75 71 78 84

GFSCGP_925_rhum_033.txt.gz
RH
17 23 24 15 13 11 11 14 17 17 14 13 15 18 18 20 22 33 37 39 42 45 44 45 42 40 43 45 44 45 41 45 42 39 40 38 38 37 37 42 42 42 45 50
19 24 16 12 12 13 13 17 25 18 16 15 16 18 22 22 25 31 34 39 42 46 48 50 46 43 42 41 42 42 41 41 40 40 42 44 44 42 42 49 49 49 49 47
26 17 11 14 22 23 25 28 26 23 20 18 19 22 25 23 25 25 30 35 39 47 51 50 50 45 41 41 40 41 42 41 38 43 44 42 41 46 49 46 44 43 44 44
20 15 16 17 25 24 31 27 26 25 28 34 21 35 28 27 28 31 36 38 42 44 47 49 52 49 46 45 42 41 41 41 42 43 44 46 51 52 49 46 44 45 47 50
20 19 25 29 25 22 28 23 26 27 32 32 33 32 30 27 40 41 42 42 45 45 48 52 49 47 47 47 45 43 43 44 43 44 46 47 49 48 47 47 50 54 55 56
20 21 23 25 21 21 22 27 32 34 38 55 42 37 35 31 38 41 41 42 42 43 44 44 44 46 46 46 45 45 44 44 41 43 46 49 50 53 53 54 58 60 59 56
22 25 24 20 28 24 28 39 65 58 73 62 48 52 59 42 34 37 43 45 44 44 44 43 41 45 45 43 43 44 44 43 41 42 48 53 54 54 55 56 60 57 55 58
40 40 28 24 27 29 32 32 77 60 81 65 36 52 48 37 37 40 41 46 42 42 37 41 40 40 38 38 38 39 41 42 44 47 44 43 42 44 51 51 50 53 57 60
44 38 26 25 23 27 30 48 27 42 63 75 51 43 38 37 41 34 36 36 43 42 38 42 39 36 36 37 40 41 40 43 42 36 34 34 37 41 43 50 59 60 62 64
28 42 24 23 21 28 30 25 49 66 67 62 49 48 61 43 40 37 37 39 38 36 36 39 38 38 40 39 38 38 40 39 34 34 35 37 41 43 52 56 61 64 66 68
36 44 32 21 29 33 36 39 38 42 62 76 82 53 35 40 42 39 38 38 40 39 38 40 40 42 40 39 38 41 34 32 33 35 37 41 43 47 53 60 65 69 65 73
31 39 48 33 25 25 26 33 38 77 58 69 83 60 33 48 46 44 40 38 39 40 39 44 41 41 42 40 39 34 33 32 34 36 40 42 43 51 55 60 63 70 63 66
43 43 68 46 40 34 27 24 24 41 70 64 81 65 29 38 41 45 42 33 43 45 47 50 50 47 42 41 39 36 34 34 35 36 40 42 45 56 58 61 62 59 65 67
50 40 48 63 36 29 28 27 24 31 82 69 68 53 39 57 57 52 55 52 56 59 59 60 56 49 47 46 44 39 36 36 34 37 36 39 47 54 56 61 56 60 61 56
50 56 53 50 37 32 30 33 31 32 34 49 48 41 42 47 56 56 54 51 63 66 62 58 56 52 50 50 48 46 38 37 36 34 34 36 43 52 54 55 56 58 57 54
47 72 58 52 52 50 43 43 44 35 32 37 42 44 51 52 50 58 60 62 65 65 60 58 54 53 53 52 49 42 36 36 37 36 35 34 34 51 56 55 55 55 55 51
68 76 86 85 77 76 74 50 37 35 37 38 48 49 54 63 67 71 73 71 72 69 64 62 60 55 52 49 48 48 37 39 43 48 40 41 44 50 56 55 59 57 51 44
74 84 96 89 84 56 48 35 41 46 46 48 59 66 66 68 73 77 77 77 76 72 70 65 58 53 46 46 46 31 31 32 37 38 42 48 52 60 67 81 56 52 45 42
66 90 97 95 94 63 47 39 46 52 65 66 75 75 74 70 65 89 71 73 75 74 65 58 52 51 39 27 27 28 30 30 33 44 49 58 66 80 96 82 80 55 43 43
75 81 85 92 91 85 59 43 37 37 76 71 77 83 84 74 88 84 78 72 68 60 56 54 24 22 23 26 26 28 28 29 35 44 60 65 80 98 100 91 67 43 43 55
94 87 91 96 90 80 59 39 37 69 74 82 82 84 81 83 85 76 72 69 57 48 24 21 22 23 25 25 27 30 31 36 50 53 60 71 81 82 94 62 47 47 52 64
85 94 92 84 85 95 50 56 62 73 81 78 76 78 74 72 70 71 65 45 31 26 25 25 26 28 28 28 29 34 36 47 53 54 66 84 86 83 66 57 54 51 58 68
80 78 90 78 80 60 54 64 78 77 82 77 71 73 71 70 49 47 42 32 29 27 27 29 30 31 32 32 35 37 46 56 64 66 80 90 94 86 68 60 59 58 63 66
49 53 77 72 55 64 83 79 75 77 83 77 69 65 67 47 47 37 35 32 30 29 34 34 36 39 41 43 45 45 48 62 72 79 88 88 88 80 75 68 64 64 68 73
64 56 58 66 72 86 84 83 84 83 79 68 60 56 42 34 34 35 36 33 33 39 40 41 43 48 51 52 54 57 60 72 76 75 81 88 95 94 76 69 74 72 75 77
66 66 80 84 70 77 91 89 84 84 68 61 44 39 30 31 35 33 36 37 42 45 45 47 53 57 61 65 70 74 86 88 92 84 77 84 94 85 82 79 75 75 77 71

GFSCGP_925_rhum_036.txt.gz
RH
21 24 24 16 18 16 13 19 23 17 14 14 19 21 22 40 46 52 54 57 59 60 58 57 54 51 52 49 49 64 66 61 65 56 47 43 44 50 51 52 52 53 50 50
24 23 17 14 20 22 20 26 25 20 18 15 22 23 27 34 44 49 54 58 60 60 58 59 54 49 50 51 47 43 41 42 45 46 48 49 50 50 47 45 44 44 44 44
28 19 12 22 27 29 34 31 27 24 22 21 24 26 34 33 39 43 49 54 55 57 61 62 58 51 47 46 44 42 42 41 41 41 41 41 41 44 47 48 48 50 48 48
19 16 22 28 27 26 37 27 26 26 30 29 24 38 30 34 42 44 50 58 60 58 59 58 55 50 44 43 43 44 44 46 47 48 47 47 48 50 50 49 53 55 55 56
22 28 30 30 25 22 30 23 26 27 34 36 38 38 35 43 49 49 53 56 58 61 62 62 55 48 44 43 43 45 43 44 45 46 48 49 49 51 52 53 55 56 57 58
23 22 24 25 24 22 24 29 42 40 45 55 41 45 42 48 48 50 50 52 55 58 59 57 50 48 48 48 47 47 44 43 42 42 43 48 54 56 56 56 58 58 57 56
28 29 26 24 32 29 32 48 64 60 74 67 46 60 56 48 40 46 53 52 50 50 55 60 58 55 54 50 47 45 44 44 46 47 50 49 50 50 52 56 54 55 55 59
42 45 30 26 28 30 31 46 74 58 74 58 47 64 56 46 46 47 47 50 45 44 47 52 52 52 46 42 40 44 46 49 48 42 39 36 38 40 42 46 53 61 66 70
46 38 28 24 23 28 30 48 34 56 64 70 57 49 40 44 42 42 48 48 54 46 46 48 49 45 44 44 45 44 46 42 37 35 36 37 40 42 48 56 59 62 65 66
32 44 29 24 24 29 30 28 48 65 63 61 55 57 66 53 49 43 46 49 46 40 38 48 47 47 45 44 44 45 41 37 35 35 36 39 43 46 50 56 60 65 65 70
35 47 36 31 31 34 38 41 43 49 64 76 82 58 45 53 50 49 50 46 49 47 48 53 53 47 44 44 40 36 34 33 33 34 36 40 43 44 47 52 60 55 49 52
37 48 47 34 26 27 28 36 48 75 49 75 83 62 45 51 45 44 43 48 52 53 53 54 50 45 44 44 37 36 34 34 34 35 37 39 40 42 47 50 55 49 43 51
40 47 65 53 46 38 30 29 38 60 70 63 76 62 37 45 58 55 61 62 64 61 63 62 54 50 49 48 48 41 38 36 36 36 35 35 36 41 49 57 57 50 54 58
49 50 50 64 45 37 28 28 29 47 79 68 70 53 47 62 67 64 68 72 72 70 63 62 59 56 52 51 50 49 46 38 37 37 36 35 35 38 53 58 57 54 60 61
52 58 53 48 45 36 33 34 35 34 38 54 48 59 67 66 68 66 65 68 66 65 65 63 62 56 53 52 49 46 47 40 40 39 41 38 41 41 53 57 58 61 64 59
60 71 52 44 63 60 41 42 47 44 34 41 60 73 59 61 66 71 71 70 73 70 66 65 61 58 51 48 52 54 37 34 32 39 41 48 46 47 49 58 62 70 65 83
70 78 74 54 83 65 68 49 38 39 46 44 53 65 67 73 75 79 80 76 76 74 71 69 64 58 56 56 40 30 30 29 28 32 45 47 49 52 61 64 69 92 100 80
75 93 93 74 72 38 42 44 41 67 69 70 75 77 74 73 80 83 77 77 77 76 70 68 62 57 33 30 28 28 27 28 33 48 61 63 63 62 69 81 98 90 87 77
67 87 98 73 88 50 44 44 48 46 68 73 81 80 78 71 82 87 73 72 71 69 65 61 41 26 28 27 27 29 31 35 45 54 55 50 63 67 76 96 98 80 88 69
76 79 78 99 64 59 47 44 38 42 74 78 81 86 81 74 83 81 74 70 64 58 55 31 26 28 28 29 29 31 34 38 50 52 50 54 72 82 92 94 90 80 61 59
94 94 93 99 92 78 55 50 41 71 64 83 82 83 80 79 78 73 70 65 55 34 28 29 30 31 32 34 36 38 38 45 53 54 56 65 81 90 98 98 69 59 64 66
88 93 95 94 93 82 54 53 58 63 85 85 86 81 81 78 72 65 66 44 32 30 32 33 35 37 38 41 46 47 46 49 56 61 65 74 80 78 89 74 76 85 70 68
62 68 82 75 77 56 60 53 74 80 85 80 79 78 76 72 66 47 40 34 32 34 37 39 41 43 46 51 54 56 58 58 70 76 80 84 89 87 83 67 62 65 69 74
55 65 81 73 57 69 84 81 77 77 79 77 74 74 72 60 45 40 37 36 38 41 43 44 46 51 57 60 65 68 70 72 79 88 87 76 78 90 86 89 83 70 75 76
59 61 68 73 92 88 83 82 84 84 79 72 66 63 55 41 40 37 39 41 46 47 48 48 53 61 64 68 66 74 84 92 99 100 97 80 80 100 96 84 77 79 78 76
73 67 81 84 67 74 83 89 85 85 77 65 61 50 37 35 40 38 45 48 52 53 50 56 61 67 70 68 76 81 91 99 97 100 98 89 91 96 91 84 87 79 74 78

GFSCGP_925_rhum_039.txt.gz
RH
24 24 24 17 17 17 19 18 23 18 16 16 19 28 41 57 62 70 72 71 70 70 68 68 66 70 76 79 83 83 79 82 77 61 47 50 53 54 50 47 47 47 47 46
26 24 17 21 25 22 25 24 23 21 23 20 28 38 43 47 56 64 68 71 71 70 68 70 65 60 55 56 52 50 50 48 48 47 47 51 50 49 47 47 46 45 44 44
26 20 20 24 30 32 36 30 27 24 25 24 29 36 45 47 53 57 62 64 63 66 72 73 71 60 52 47 44 44 43 43 43 43 42 43 47 50 48 48 48 49 50 51
20 26 25 27 27 31 35 28 26 26 27 26 27 47 42 42 51 59 64 69 66 65 66 67 63 55 48 48 46 46 44 44 43 42 41 40 40 46 51 52 55 57 58 58
23 29 29 29 26 25 31 26 26 28 37 38 39 41 42 51 54 57 60 65 64 62 63 63 56 50 50 48 45 45 45 45 46 46 45 45 48 50 53 56 59 62 61 58
26 24 25 26 25 24 25 34 46 52 50 56 44 49 48 59 54 57 56 61 63 62 62 58 54 50 50 52 46 45 44 46 47 47 50 51 54 56 56 56 59 57 57 59
32 32 29 26 29 28 36 48 60 60 70 68 51 60 57 49 49 54 61 63 63 63 67 66 61 57 54 53 52 47 46 49 51 48 48 48 47 47 48 47 46 52 59 64
46 45 31 27 28 31 35 46 71 57 73 52 52 66 59 50 51 53 54 56 56 56 56 59 57 58 58 55 52 50 51 53 47 43 39 38 37 36 37 41 49 57 59 60
44 38 28 24 26 28 30 48 38 67 68 69 63 51 46 49 55 53 52 51 51 51 49 48 56 52 49 50 50 49 47 42 39 38 37 37 38 38 40 45 54 56 59 60
39 44 30 24 25 27 29 32 50 65 60 57 59 60 67 58 60 50 52 54 54 50 54 58 57 51 48 46 46 47 41 39 36 35 35 37 39 41 44 45 48 54 60 53
37 44 35 32 32 35 38 41 50 56 67 76 81 62 44 55 52 52 53 55 61 64 64 62 53 48 45 46 41 38 36 35 34 34 36 37 37 39 44 46 51 60 59 47
40 50 50 34 33 32 32 38 47 63 48 80 82 61 48 56 53 54 59 63 62 60 61 56 53 50 49 47 40 39 37 36 36 36 36 37 38 42 42 47 52 58 58 53
39 50 64 46 46 36 33 32 57 60 69 64 71 59 51 62 67 66 72 71 72 70 68 63 57 56 54 52 52 51 50 47 37 38 39 39 38 40 40 43 53 65 63 57
48 58 49 58 47 41 31 30 41 49 78 67 67 49 70 70 74 76 79 79 76 70 66 62 59 57 53 51 52 54 52 49 47 45 44 45 46 47 48 48 55 62 65 65
49 57 53 54 54 38 33 33 36 37 42 50 43 60 62 75 76 77 78 76 71 68 64 62 62 59 55 53 55 40 30 29 28 27 31 39 42 40 38 42 51 64 68 76
65 69 50 51 66 62 43 38 44 48 41 46 63 75 66 68 72 76 76 73 71 69 67 66 64 60 58 54 39 30 29 26 26 29 43 43 40 42 48 49 58 69 78 89
70 76 62 47 81 54 47 47 47 41 45 47 78 64 73 76 78 83 80 72 71 71 71 70 67 64 50 38 30 28 27 27 30 40 50 56 54 57 54 55 71 82 82 75
78 94 86 66 70 44 35 46 42 47 60 65 73 75 72 74 76 81 74 73 74 72 69 68 62 40 34 27 28 29 31 32 38 48 55 53 55 55 59 79 92 94 96 94
70 88 96 74 74 45 37 53 66 53 57 74 80 81 76 82 87 87 81 79 70 66 66 57 42 30 29 31 34 36 38 39 46 48 52 52 53 65 82 95 95 100 98 99
73 74 73 98 59 47 35 47 46 42 67 78 80 84 86 94 99 82 85 73 65 59 38 30 30 31 35 39 43 46 47 47 45 50 53 59 62 71 82 82 77 97 76 67
92 96 90 100 80 69 50 47 42 62 50 84 78 81 86 86 79 69 72 67 47 30 31 33 36 39 42 46 51 53 55 56 58 55 67 70 76 80 86 89 75 65 77 95
94 96 99 95 93 69 53 52 58 60 77 81 84 84 83 75 80 74 67 40 33 34 36 39 41 43 48 52 57 63 64 64 65 66 78 80 77 81 88 82 74 91 89 75
70 65 79 74 75 54 56 54 70 78 84 86 85 81 77 79 71 62 43 38 36 39 42 44 46 48 50 57 65 62 67 82 86 84 91 99 89 82 87 76 70 81 81 75
63 64 76 68 52 63 62 79 78 75 80 80 77 78 72 69 56 43 39 39 43 46 48 45 50 54 56 65 68 67 77 82 91 100 100 100 90 93 95 97 97 88 78 76
65 70 73 78 74 85 84 83 82 82 82 77 74 68 68 52 45 41 43 46 50 52 47 49 57 60 64 71 72 79 88 96 100 89 93 99 91 98 98 96 92 90 83 79
72 70 82 80 65 70 68 85 85 87 81 74 66 52 42 40 44 41 49 51 54 55 52 57 61 66 72 78 84 91 97 99 99 96 98 99 98 98 95 84 82 86 80 82

GFSCGP_925_rhum_042.txt.gz
RH
24 25 23 18 18 17 18 18 19 20 18 20 35 49 62 68 72 79 82 84 82 79 76 80 89 92 90 92 90 88 84 85 90 74 58 55 53 49 47 46 46 45 44 44
28 25 19 26 22 26 24 25 24 23 25 24 44 54 57 60 69 76 82 82 80 78 78 74 68 62 60 64 70 75 72 64 61 53 50 47 45 42 40 38 37 42 46 47
28 21 22 28 32 33 35 29 28 27 25 29 34 40 55 58 65 68 71 70 70 77 80 80 69 66 62 54 48 47 45 43 42 42 43 44 44 42 42 44 48 50 52 55
24 28 26 28 29 32 32 28 27 29 27 33 30 41 48 55 65 68 69 73 73 74 76 75 72 58 48 46 44 42 42 41 42 42 40 40 42 45 49 53 57 58 59 60
26 28 29 31 28 26 31 31 32 34 42 38 42 43 46 57 66 68 68 69 69 70 68 68 58 54 48 46 47 45 45 46 45 44 44 45 46 52 58 59 62 64 63 61
30 26 27 27 30 28 30 41 49 55 53 57 48 54 52 66 60 63 62 66 68 68 66 60 55 55 53 53 52 51 50 49 49 50 51 52 54 57 57 55 58 59 60 61
37 34 30 28 30 30 41 47 63 62 67 68 52 59 54 47 53 59 66 68 68 68 68 67 65 63 61 56 51 50 50 54 54 53 53 49 46 41 36 36 38 40 46 52
47 45 31 28 29 34 40 44 71 58 77 58 53 65 58 55 53 58 60 63 65 66 67 66 61 62 62 61 55 50 55 55 50 43 39 37 35 35 35 37 40 47 50 51
45 39 29 26 31 29 38 49 42 72 68 70 64 54 51 60 61 62 62 62 64 62 61 61 63 59 55 52 52 56 56 44 40 38 36 36 36 38 38 39 41 44 48 50
41 46 31 26 27 32 28 39 53 64 55 48 60 61 69 66 67 62 60 64 62 60 65 67 61 56 55 53 54 48 42 40 37 36 38 37 37 38 40 41 37 40 44 54
40 43 36 32 34 38 40 44 55 62 67 74 79 62 51 62 62 63 60 58 62 71 68 65 58 52 48 41 39 38 38 37 36 36 36 38 40 44 46 51 47 47 58 68
42 50 49 34 31 37 35 40 45 60 49 80 81 67 55 57 56 57 65 70 70 68 67 62 57 53 50 49 50 47 44 49 49 41 40 42 43 45 46 47 48 56 64 72
42 50 60 46 39 36 36 40 58 59 69 69 72 53 56 64 72 74 78 77 78 72 68 65 60 56 54 54 54 53 52 48 47 45 39 32 31 42 47 40 38 48 59 70
51 56 48 54 38 43 35 33 50 50 76 65 65 45 64 69 76 83 84 82 76 72 67 65 63 58 55 53 52 47 32 28 26 26 28 34 40 39 37 37 38 40 42 72
47 55 52 58 57 42 33 35 42 42 44 47 42 59 49 71 82 86 84 80 73 68 64 64 64 60 56 52 38 32 29 26 27 29 32 43 44 41 40 42 44 51 69 83
63 67 49 55 66 63 48 42 43 42 41 50 49 56 64 73 79 86 84 78 71 66 64 64 63 62 56 45 36 29 28 28 29 32 44 47 45 43 46 54 63 70 85 87
66 74 66 64 73 50 50 48 49 50 49 52 64 55 79 80 82 87 85 77 71 69 66 65 66 60 49 34 29 31 32 34 34 36 40 46 50 52 55 64 77 94 97 92
75 78 79 62 66 39 30 39 49 46 49 56 59 65 74 76 80 80 78 76 73 70 65 66 60 44 35 32 34 36 38 39 41 42 47 52 55 59 62 66 74 90 88 87
69 82 95 68 68 41 28 58 60 52 48 70 66 78 79 89 82 81 82 76 66 66 65 59 45 33 33 38 41 45 46 48 50 54 55 59 65 65 68 75 82 96 95 99
69 71 72 95 56 46 34 46 50 41 68 65 74 84 89 87 94 80 86 80 75 65 50 33 32 36 39 44 49 51 55 59 59 57 63 66 71 73 77 81 94 91 82 70
93 97 86 99 74 64 47 47 42 63 55 80 77 82 92 88 79 70 84 73 57 36 32 34 38 41 46 52 55 59 58 62 73 76 72 74 80 83 89 87 92 70 77 89
92 98 97 96 89 68 49 49 56 57 64 74 82 84 84 77 79 80 72 46 36 37 38 41 43 45 51 55 64 64 60 68 72 74 87 96 96 94 87 84 88 95 98 92
76 66 80 74 74 52 53 56 63 68 70 80 84 83 81 82 81 73 48 43 39 40 43 46 46 50 49 57 68 68 66 77 83 93 99 99 98 98 92 86 82 91 94 94
69 64 72 66 48 63 60 64 76 78 73 81 80 81 80 78 69 52 44 42 46 47 48 46 52 57 55 59 71 74 78 87 98 97 92 81 98 94 100 99 97 95 91 83
69 68 71 76 70 78 78 84 75 79 80 79 78 77 74 62 53 46 45 48 50 51 49 52 59 63 64 72 78 83 88 96 96 97 88 95 99 98 97 94 87 90 96 92
74 70 81 75 57 58 55 70 84 87 84 82 74 66 52 51 47 43 48 49 53 57 54 59 67 74 80 87 92 91 85 86 94 96 100 100 98 100 89 87 82 71 76 84

GFSCGP_925_rhum_045.txt.gz
RH
26 21 20 18 18 16 19 19 19 20 20 32 40 46 54 58 60 65 66 68 69 72 79 87 96 98 98 98 96 80 78 85 86 79 75 58 53 49 46 43 42 40 42 45
24 24 20 26 21 22 22 24 26 26 27 29 42 52 57 58 67 66 69 70 70 72 70 78 86 92 94 97 89 89 91 89 81 68 63 51 49 45 40 40 43 46 48 50
29 22 24 29 30 30 32 29 28 26 27 30 33 36 50 62 66 68 68 66 66 64 62 65 72 78 79 79 80 77 64 60 59 58 50 47 44 48 53 50 48 49 53 55
29 29 26 29 32 30 35 29 29 27 24 28 31 26 41 58 68 69 68 65 63 63 64 64 64 62 64 57 48 44 48 49 51 50 48 46 50 52 53 53 55 57 59 60
30 29 30 32 30 28 35 33 34 34 36 32 39 29 33 58 70 69 65 63 62 61 58 57 54 54 61 54 51 49 48 49 50 49 48 49 50 54 58 60 63 64 61 57
33 28 29 29 34 32 39 38 42 45 43 45 46 44 40 51 54 63 60 60 60 59 57 54 56 58 59 56 55 53 54 53 50 49 50 52 55 55 56 51 55 46 45 46
36 34 30 29 32 33 35 39 46 47 53 45 49 53 41 43 46 52 56 56 57 55 55 54 55 58 62 61 58 54 51 54 55 52 49 43 37 35 33 33 40 40 46 41
41 37 31 29 31 35 41 37 58 54 59 52 48 53 42 47 47 47 49 50 53 57 57 56 58 59 63 64 58 54 57 56 49 42 38 36 35 36 37 37 38 38 40 42
44 39 30 29 34 31 43 45 40 61 65 59 47 47 42 52 56 52 50 53 55 55 56 55 61 66 65 64 62 62 57 47 41 38 36 37 37 39 40 43 45 45 46 50
43 46 32 28 30 35 33 39 49 51 57 42 41 50 41 56 55 57 54 53 54 55 57 58 60 64 63 64 57 50 44 41 38 37 38 40 41 43 45 46 48 55 55 57
40 44 38 33 33 39 39 44 53 50 52 44 48 31 47 48 50 54 50 53 57 61 58 55 55 54 49 49 45 41 39 42 46 43 40 42 44 44 43 45 47 47 48 54
42 49 49 36 33 36 36 40 45 49 47 68 60 40 50 55 51 53 54 61 61 56 53 52 54 54 54 58 54 52 52 48 46 45 40 28 24 26 37 37 35 35 36 39
44 49 53 40 34 36 39 43 46 50 58 61 71 33 52 59 61 58 61 63 61 57 55 54 52 52 54 58 58 54 41 30 26 25 24 24 30 36 38 37 38 41 45 49
49 50 46 46 37 43 41 45 46 44 58 50 47 34 44 59 65 67 66 64 60 59 56 53 51 53 54 57 55 36 30 26 25 25 26 30 43 42 41 43 45 48 56 71
47 48 50 57 56 45 36 37 50 43 42 47 38 42 34 43 58 65 65 65 64 59 55 52 51 53 52 50 42 32 27 26 28 29 32 44 47 46 44 47 50 55 70 97
58 63 53 60 61 56 48 41 40 43 39 41 42 40 34 54 61 71 71 66 63 58 54 53 55 54 50 45 38 28 30 31 34 35 37 43 50 52 49 53 56 78 92 97
60 69 63 60 60 44 55 45 43 43 43 37 43 34 65 71 69 71 72 66 62 57 57 60 59 51 50 38 31 35 34 37 40 42 50 55 57 56 59 71 81 84 91 84
67 64 65 60 61 40 31 41 40 43 44 43 50 55 60 60 66 67 63 63 62 58 58 61 55 48 38 33 35 40 44 44 46 54 55 57 63 63 77 85 83 89 97 100
59 70 80 66 51 36 25 42 53 52 38 46 46 62 72 75 68 70 67 61 56 58 60 58 45 38 34 38 43 46 48 53 56 58 67 70 74 82 87 84 88 90 99 96
62 64 69 77 49 44 30 38 50 42 56 49 57 72 78 69 79 61 69 64 61 64 61 43 36 36 40 44 47 51 58 58 62 74 80 83 88 94 92 92 88 91 81 79
92 94 84 81 69 56 40 43 45 50 44 67 62 69 78 69 67 68 75 71 66 48 36 38 39 42 42 46 50 61 62 61 74 84 86 91 98 100 99 94 87 83 94 92
76 92 96 91 81 68 43 48 56 52 54 62 71 71 76 74 75 80 69 50 38 37 42 42 44 45 46 50 58 64 66 70 84 92 95 89 84 86 99 95 82 84 100 99
68 63 72 65 64 51 47 55 60 60 59 65 72 72 73 74 73 64 48 40 40 40 43 45 45 50 51 52 66 74 74 82 92 92 94 86 83 90 98 95 96 96 97 100
68 61 66 64 48 55 56 56 66 70 70 65 73 73 72 72 68 50 39 42 44 46 48 50 53 56 60 62 69 80 86 93 90 92 92 94 91 93 100 100 99 95 95 91
62 64 65 68 61 63 62 72 66 74 75 77 74 72 71 64 47 47 48 46 46 52 53 52 60 66 70 78 85 90 92 89 80 86 93 97 100 100 100 97 88 86 88 88
68 67 76 74 51 51 53 76 79 80 79 75 68 59 55 57 57 51 50 49 54 57 56 62 71 76 80 88 92 92 87 77 80 92 91 98 100 100 100 92 84 76 72 75

GFSCGP_925_rhum_048.txt.gz
RH
17 16 14 11 11 11 13 12 12 12 15 15 15 24 28 42 43 47 43 43 44 45 53 62 69 70 74 81 86 91 96 84 77 74 86 82 63 58 55 49 56 57 57 60
18 16 17 16 14 14 14 15 16 18 17 19 23 29 32 39 43 43 44 47 49 53 56 67 71 74 74 78 82 88 88 89 85 79 60 53 51 46 46 52 60 60 63 65
15 19 21 17 18 18 19 18 20 16 20 21 22 27 35 42 46 48 46 44 46 49 55 59 66 70 75 79 77 71 74 76 66 56 56 57 56 51 49 53 53 64 67 68
20 20 21 19 21 20 20 21 19 19 18 18 22 17 27 38 44 46 50 48 48 48 47 46 44 47 52 58 58 56 60 58 60 57 49 45 40 40 52 55 58 59 70 68
24 21 21 20 23 22 25 22 20 20 20 20 22 19 24 36 42 48 49 48 49 48 45 35 35 39 41 52 52 51 50 51 58 58 52 52 51 54 56 56 58 60 59 61
22 22 21 23 26 23 26 26 26 25 24 27 21 26 13 25 29 43 47 48 47 46 39 34 36 40 46 59 60 58 54 56 60 59 60 58 57 51 43 43 42 39 41 42
24 25 23 23 26 27 25 24 25 31 30 26 35 32 17 30 31 36 45 46 44 38 37 36 38 41 45 51 55 55 52 54 58 58 55 50 47 44 41 42 38 39 35 37
23 30 23 23 24 22 25 22 25 26 29 28 37 32 29 33 32 32 37 40 36 37 37 37 39 42 46 51 52 50 51 51 51 50 46 46 43 41 41 42 43 42 42 43
26 27 24 27 25 24 31 28 30 40 49 44 24 28 30 36 37 36 39 36 36 37 39 39 42 45 48 52 54 55 52 48 47 47 48 48 49 48 46 49 51 52 56 54
29 32 26 26 24 27 27 27 34 34 46 29 18 23 18 37 38 36 39 36 36 37 41 41 45 52 53 55 59 56 47 44 43 45 50 46 46 47 50 54 53 51 50 51
26 27 32 27 26 25 34 32 32 28 34 24 21 14 27 29 33 36 34 35 36 42 43 45 47 51 52 50 48 45 41 42 50 50 52 49 45 40 40 42 41 41 42 38
31 31 38 29 26 27 26 26 28 30 33 43 39 20 26 34 35 34 34 35 38 43 43 43 44 43 43 42 44 50 52 53 52 54 38 34 36 38 36 37 38 41 41 44
31 33 41 36 30 31 30 29 27 31 38 37 57 18 28 36 39 37 37 42 46 45 42 41 43 43 44 50 52 52 48 43 33 29 30 31 33 34 35 38 41 44 49 53
32 34 32 35 26 27 33 32 28 24 35 22 26 14 24 32 36 38 40 43 44 45 42 41 40 41 44 46 42 41 38 32 30 30 28 27 34 40 40 43 47 51 56 60
35 36 33 35 34 32 28 28 31 28 23 32 17 16 11 19 28 33 40 44 46 44 44 41 39 40 40 38 38 33 29 31 34 30 28 30 41 44 45 48 54 57 63 65
41 43 42 45 43 39 36 28 26 29 26 26 22 23 16 20 23 37 45 46 48 45 42 38 36 38 37 35 29 29 31 33 35 31 32 35 42 46 50 53 58 60 60 62
43 50 47 42 42 39 62 36 27 24 26 26 28 22 27 34 35 40 45 46 46 44 41 38 38 38 35 31 28 29 33 36 36 35 33 36 40 46 51 54 58 60 62 67
51 48 60 59 56 74 19 26 26 27 24 23 25 28 27 30 35 37 39 44 46 44 41 39 44 38 32 29 31 37 35 35 37 37 38 41 45 49 52 59 61 59 64 76
38 47 73 88 39 25 15 21 24 28 20 22 24 24 37 46 47 49 43 42 44 42 40 43 40 32 29 31 36 36 35 35 35 38 45 49 56 57 60 60 62 62 67 68
43 45 52 77 89 85 22 31 38 34 33 31 30 34 46 50 51 24 48 48 46 43 43 39 32 31 33 37 41 38 32 36 39 45 54 57 60 64 66 68 67 66 65 67
83 88 90 72 95 44 25 33 37 40 30 38 36 38 46 46 39 50 47 50 45 44 38 31 32 33 34 41 42 39 38 39 44 55 62 64 65 65 68 79 79 67 64 84
61 80 93 84 99 80 29 41 48 38 38 40 45 42 49 53 60 60 55 50 44 32 34 36 35 34 39 42 43 36 36 42 54 62 66 68 66 64 65 73 69 67 71 91
53 44 49 47 41 37 33 36 41 43 43 42 45 47 52 61 59 55 51 42 35 35 37 39 37 40 42 44 43 44 46 57 64 67 67 67 66 66 64 71 73 80 77 80
45 44 50 50 31 34 35 32 35 36 44 45 51 51 53 54 55 48 36 36 39 41 42 45 40 38 38 45 51 57 61 67 69 65 69 86 94 80 72 74 72 73 74 76
41 48 45 47 36 35 37 45 51 52 58 59 59 58 57 56 48 38 42 46 49 50 59 44 43 45 44 51 58 61 67 71 68 64 69 77 81 89 85 77 72 68 66 67
43 42 55 52 46 45 51 65 67 63 63 60 56 54 50 46 53 50 52 51 62 65 48 46 46 50 51 55 59 59 61 64 67 68 66 75 87 84 85 83 80 76 76 74

GFSCGP_925_rhum_051.txt.gz
RH
17 19 19 15 11 10 9 9 10 9 8 9 10 15 17 22 23 28 30 32 32 33 38 43 47 47 43 50 60 89 98 94 97 90 82 73 70 71 59 51 53 53 54 57
17 22 16 11 9 10 11 12 11 10 10 13 12 16 19 29 28 27 29 31 33 36 43 49 54 58 59 63 70 88 84 88 76 60 59 58 53 46 41 48 56 57 60 60
20 20 15 12 12 12 12 14 16 14 14 12 14 18 23 24 25 27 27 28 32 38 44 48 53 63 72 77 74 75 66 65 55 47 48 48 44 46 44 48 50 59 60 58
30 24 13 13 12 13 17 15 13 14 17 18 14 19 23 26 31 34 35 34 36 37 41 44 49 56 59 57 52 47 48 50 47 44 41 42 36 37 45 47 49 52 61 56
17 16 14 14 16 16 23 16 15 13 14 21 16 14 25 26 30 33 36 37 36 37 38 36 38 41 43 48 46 47 47 44 48 46 43 44 43 48 48 50 53 49 52 49
26 16 15 18 18 17 18 18 18 16 16 23 14 16 17 23 20 27 31 34 36 38 34 29 30 34 42 48 48 46 44 46 49 50 52 51 52 48 44 41 43 39 36 34
18 17 18 17 19 18 17 19 30 30 24 25 20 21 14 21 21 21 32 35 38 38 31 28 30 33 43 48 49 47 44 46 51 54 54 52 49 45 43 42 38 37 32 32
20 28 19 17 18 19 19 18 24 28 24 19 23 17 19 24 22 24 29 33 37 36 30 29 30 33 38 44 46 44 45 46 51 50 48 47 44 41 42 41 40 40 40 41
20 21 18 19 18 17 21 22 20 24 30 34 15 17 27 25 26 28 31 33 37 31 31 30 31 35 39 43 46 46 45 46 46 47 46 46 47 47 45 44 46 44 45 41
17 23 19 21 20 20 21 20 26 24 38 29 14 14 18 26 27 28 30 34 33 30 31 31 33 38 40 44 48 52 49 44 44 43 49 47 47 44 43 44 41 40 38 37
15 19 26 22 22 16 25 23 21 22 25 31 19 14 16 17 22 25 27 30 30 30 31 33 35 40 44 48 53 52 44 40 42 46 50 52 44 37 35 36 35 34 37 36
19 20 23 24 18 19 20 19 21 32 26 26 33 21 16 18 20 22 23 26 27 29 31 33 38 43 46 47 46 42 42 46 50 49 49 34 33 33 32 30 32 35 38 41
24 21 27 28 24 23 24 20 19 20 28 31 46 23 18 21 21 21 21 24 27 30 34 36 39 40 41 41 41 46 47 51 42 36 26 27 28 27 29 31 35 38 41 45
33 21 24 31 23 20 29 22 20 22 37 28 18 15 16 19 19 19 22 24 30 37 36 36 37 38 40 43 45 42 44 37 31 26 25 23 25 31 34 36 39 42 46 51
30 33 24 22 24 24 22 21 21 24 22 28 20 14 9 11 16 18 19 24 33 37 36 36 36 37 39 41 38 37 37 31 29 28 24 23 29 34 35 38 43 47 50 50
30 34 34 39 28 29 29 23 21 19 19 16 14 15 11 12 13 16 20 26 33 36 35 35 34 36 37 36 34 35 30 28 30 25 25 26 29 32 34 38 44 46 48 47
37 37 43 39 33 30 54 32 22 18 17 18 24 17 17 19 19 18 21 28 32 35 35 36 34 35 34 32 30 28 29 30 29 27 25 27 30 33 35 36 40 45 48 49
42 43 50 51 61 76 17 17 16 22 18 15 15 16 16 18 19 21 23 28 33 34 35 35 34 34 32 30 28 30 29 27 28 27 29 30 33 38 39 42 46 47 48 51
31 42 60 88 38 24 19 14 18 20 19 13 17 13 15 28 30 29 26 28 32 34 35 36 36 34 31 28 30 29 29 25 25 26 30 34 38 42 46 49 50 52 50 54
32 35 46 67 87 88 25 23 24 23 26 18 20 21 27 33 41 30 31 32 35 37 36 37 37 31 29 31 33 31 26 24 28 30 35 41 45 48 50 53 59 60 56 52
75 78 80 64 93 49 21 25 27 34 35 26 22 22 26 31 41 40 34 38 39 37 37 34 30 30 31 38 36 31 26 27 29 36 42 45 49 50 51 52 58 62 55 66
61 77 91 80 98 80 22 28 37 37 27 30 29 29 34 37 50 46 42 42 39 38 31 30 30 36 40 41 35 28 26 27 35 44 48 50 51 54 52 53 54 56 60 70
46 39 46 45 43 30 24 25 34 33 34 34 37 34 39 44 48 46 45 42 35 31 30 34 43 50 43 37 32 34 37 40 45 50 50 52 59 66 62 54 54 60 72 76
33 34 42 41 23 24 25 26 28 30 34 34 38 41 40 42 44 46 41 33 32 37 46 65 65 46 33 34 42 43 45 49 51 53 53 55 60 67 74 70 61 63 71 73
33 36 34 35 26 24 31 42 48 45 48 48 48 47 47 44 47 37 34 37 49 73 87 62 42 37 34 39 44 43 45 51 52 52 53 57 59 72 80 83 80 73 67 64
33 32 48 49 45 42 52 55 55 51 52 49 48 48 46 42 38 43 55 77 84 80 68 50 44 48 41 37 38 42 43 46 51 59 61 60 67 74 80 82 80 80 81 75